Regional Weather Roundup
Issued by NWS

Home | Current Version | Previous Version | Graphics & Text | Print | Product List | Glossary On
Versions: 1 2 3 4 5 6 7 8 9 10 11 12 13 14 15 16 17 18 19 20 21 22 23 24 25 26 27 28 29 30 31 32 33 34 35 36 37 38 39 40 41 42 43 44 45 46 47 48 49 50
000
ASUS43 KOAX 251710
RWRNE

WEATHER ROUNDUP FOR NEBRASKA
NATIONAL WEATHER SERVICE OMAHA NE
1200 PM CDT MON MAY 25 2015

NOTES: SATELLITE DATA IS BEING USED TO AUGMENT CLOUD COVER ABOVE
       12000 FEET.
       "FAIR" INDICATES FEW OR NO CLOUDS BELOW 12,000 FEET WITH NO
       SIGNIFICANT WEATHER AND/OR OBSTRUCTIONS TO VISIBILITY.

  * THESE STATIONS DO NOT REPORT WEATHER SUCH AS RAIN...SNOW OR FOG.

NEZ001>004-019>022-054>056-251800-
NEBRASKA PANHANDLE

CITY           SKY/WX    TMP DP  RH WIND       PRES   REMARKS
SCOTTSBLUFF    LGT RAIN  53  51  93 W12       29.86R
ALLIANCE       LGT RAIN  52  51  97 N8        29.81R FOG
CHADRON        CLOUDY    56  51  84 NE3       29.83S
KIMBALL          N/A    N/A N/A N/A MISG        N/A
SIDNEY         LGT RAIN  52  48  86 NW14      29.87R
$$

NEZ057>060-069>072-079>082-251800-
SOUTHWEST NEBRASKA

CITY           SKY/WX    TMP DP  RH WIND       PRES   REMARKS
NORTH PLATTE   CLOUDY    61  52  72 W12       29.80F
IMPERIAL       CLOUDY    61  50  67 NW16G23   29.82S
LEXINGTON      PTSUNNY   67  55  65 SW8       29.78S
MCCOOK         SUNNY     66  53  63 NW12      29.78F
OGALLALA       CLOUDY    60  53  76 W9        29.81S
$$

NEZ005>010-023>029-035>040-094-251800-
NORTH CENTRAL NEBRASKA

CITY           SKY/WX    TMP DP  RH WIND       PRES   REMARKS
VALENTINE      LGT RAIN  58  56  93 E12       29.77S
AINSWORTH      CLOUDY    58  58 100 NE12      29.76F
BROKEN BOW     PTSUNNY   68  55  63 VRB6      29.77F
O`NEILL        PTSUNNY   65  62  90 SE9       29.76F
ORD            MOSUNNY   67  55  65 W9        29.76F
THEDFORD       LGT RAIN  60  55  83 W7        29.79S
$$

NEZ041-046>049-061>064-073>077-083>087-251800-
SOUTH CENTRAL NEBRASKA

CITY           SKY/WX    TMP DP  RH WIND       PRES   REMARKS
GRAND ISLAND   PTSUNNY   70  53  54 S8        29.79S
AURORA         PTSUNNY   69  53  54 S13G18    29.79S
HASTINGS       CLOUDY    67  53  61 S8        29.80S
HEBRON         CLOUDY    69  56  65 S9        29.82R
HOLDREGE       MOSUNNY   67  54  63 S9        29.79S
KEARNEY *      MOSUNNY   70  54  56 S13       29.79S
YORK           PTSUNNY   70  55  60 SW14      29.80S
$$

NEZ011>018-030>034-042>045-251800-
NORTHEAST NEBRASKA

CITY           SKY/WX    TMP DP  RH WIND       PRES   REMARKS
NORFOLK        MOSUNNY   70  58  65 S9        29.77S
ALBION         SUNNY     71  54  55 SW13G18   29.77S
BLAIR          MOSUNNY   73  55  54 S13G21    29.79F
COLUMBUS *     SUNNY     72  54  53 SW14      29.81F
FREMONT        MOSUNNY   73  55  52 S12G20    29.79F
TEKAMAH        MOSUNNY   76  59  55 S16       29.77F
WAYNE          PTSUNNY   68  60  75 S7        29.77F
$$

NEZ050>053-065>068-078-088>093-251800-
SOUTHEAST NEBRASKA

CITY           SKY/WX    TMP DP  RH WIND       PRES   REMARKS
LINCOLN        SUNNY     73  58  59 SW7       29.80F
OMAHA EPPLEY   MOSUNNY   73  58  59 SW12      29.79F
BEATRICE       CLOUDY    71  61  70 S12       29.82S
FALLS CITY     SUNNY     77  61  57 S15G28    29.82S
NEBRASKA CITY  PTSUNNY   71  57  60 SW13      29.82S
PLATTSMOUTH    MOSUNNY   72  57  59 S13G21    29.81F
$$

NEZ044-045-051>053-067-251800-
OMAHA AREA

CITY           SKY/WX    TMP DP  RH WIND       PRES   REMARKS
OMAHA EPPLEY   MOSUNNY   73  58  59 SW12      29.79F
BLAIR          MOSUNNY   73  55  54 S13G21    29.79F
FREMONT        MOSUNNY   73  55  52 S12G20    29.79F
MILLARD        MOSUNNY   73  57  57 SW3       29.79F
OFFUTT AFB     SUNNY     73  59  61 S12       29.79F
PLATTSMOUTH    MOSUNNY   72  57  59 S13G21    29.81F
WAHOO          CLOUDY    70  57  62 S9        29.79F
$$



USA.gov is the U.S. government's official web portal to all federal, state and local government web resources and services.